Regional Weather Roundup
Issued by NWS

Home | Current Version | Previous Version | Graphics & Text | Print | Product List | Glossary On
Versions: 1 2 3 4 5 6 7 8 9 10 11 12 13 14 15 16 17 18 19 20 21 22 23 24 25 26 27 28 29 30 31 32 33 34 35 36 37 38 39 40 41 42 43 44 45 46 47 48 49 50
000
ASUS43 KOAX 240910
RWRNE

WEATHER ROUNDUP FOR NEBRASKA
NATIONAL WEATHER SERVICE OMAHA NE
400 AM CDT THU JUL 24 2014

NOTES: SATELLITE DATA IS BEING USED TO AUGMENT CLOUD COVER ABOVE
       12000 FEET.
       "FAIR" INDICATES FEW OR NO CLOUDS BELOW 12,000 FEET WITH NO
       SIGNIFICANT WEATHER AND/OR OBSTRUCTIONS TO VISIBILITY.

  * THESE STATIONS DO NOT REPORT WEATHER SUCH AS RAIN...SNOW OR FOG.

NEZ001>004-019>022-054>056-241000-
NEBRASKA PANHANDLE

CITY           SKY/WX    TMP DP  RH WIND       PRES   REMARKS
SCOTTSBLUFF    MOCLDY    68  64  87 SE9       30.04F
ALLIANCE       MOCLDY    67  63  87 SE17      30.05F
CHADRON        MOCLDY    72  65  78 S12       29.99F
KIMBALL        PTCLDY    69  61  76 S9        30.10F
SIDNEY         PTCLDY    72  63  73 S16       30.10F
$$

NEZ057>060-069>072-079>082-241000-
SOUTHWEST NEBRASKA

CITY           SKY/WX    TMP DP  RH WIND       PRES   REMARKS
NORTH PLATTE   CLEAR     67  59  75 SE12      30.10F
IMPERIAL       CLEAR     68  62  81 S14       30.11F
LEXINGTON      CLEAR     65  60  86 SE7       30.12F
MCCOOK         CLEAR     66  62  87 E6        30.12F
OGALLALA       PTCLDY    66  61  83 CALM      30.10F
$$

NEZ005>010-023>029-035>040-094-241000-
NORTH CENTRAL NEBRASKA

CITY           SKY/WX    TMP DP  RH WIND       PRES   REMARKS
VALENTINE      CLEAR     67  60  78 S12       30.06F
AINSWORTH      CLEAR     65  58  77 SE13G20   30.09F
BROKEN BOW     CLEAR     64  60  87 SE6       30.12F
O`NEILL        MOCLDY    66  58  75 SE8       30.10F
ORD            CLEAR     64  59  83 SE3       30.11F
THEDFORD       CLEAR     68  60  76 SE12      30.10F
$$

NEZ041-046>049-061>064-073>077-083>087-241000-
SOUTH CENTRAL NEBRASKA

CITY           SKY/WX    TMP DP  RH WIND       PRES   REMARKS
GRAND ISLAND   CLEAR     65  59  81 SE7       30.12F
AURORA         CLEAR     63  61  94 SE3       30.12F
HASTINGS       CLEAR     66  58  75 S6        30.12F
HEBRON         CLEAR     61  57  87 CALM      30.12S
HOLDREGE       CLEAR     63  60  89 SE7       30.12F
KEARNEY *      CLEAR     63  57  82 SE7       30.12F
YORK           CLEAR     63  61  94 E3        30.13F
$$

NEZ011>018-030>034-042>045-241000-
NORTHEAST NEBRASKA

CITY           SKY/WX    TMP DP  RH WIND       PRES   REMARKS
NORFOLK        PTCLDY    63  59  87 SE5       30.12F
ALBION         PTCLDY    61  59  92 SE6       30.12F
BLAIR          CLEAR     65  59  82 SE6       30.13F
COLUMBUS *     PTCLDY    61  55  82 E5        30.13F
FREMONT        CLEAR     68  61  78 E6        30.13F
TEKAMAH        CLEAR     63  59  87 CALM      30.13F
WAYNE          PTCLDY    65  61  87 SE6       30.13F
$$

NEZ050>053-065>068-078-088>093-241000-
SOUTHEAST NEBRASKA

CITY           SKY/WX    TMP DP  RH WIND       PRES   REMARKS
LINCOLN        CLEAR     71  61  70 SE9       30.13F
OMAHA EPPLEY   CLEAR     69  59  70 SE6       30.14F
BEATRICE       CLEAR     65  62  89 SE3       30.12S
FALLS CITY     CLEAR     64  61  90 E5        30.12F
NEBRASKA CITY  CLEAR     65  61  87 E5        30.14S
PLATTSMOUTH    CLEAR     66  60  79 SE6       30.14S
$$

NEZ044-045-051>053-067-241000-
OMAHA AREA

CITY           SKY/WX    TMP DP  RH WIND       PRES   REMARKS
OMAHA EPPLEY   CLEAR     69  59  70 SE6       30.14F
BLAIR          CLEAR     65  59  82 SE6       30.13F
FREMONT        CLEAR     68  61  78 E6        30.13F
MILLARD        CLEAR     67  62  83 CALM      30.13F
OFFUTT AFB     CLEAR     63  63  99 CALM      30.13F
PLATTSMOUTH    CLEAR     66  60  79 SE6       30.14S
WAHOO          FAIR      64  60  86 E5        30.13F
$$


USA.gov is the U.S. government's official web portal to all federal, state and local government web resources and services.